| time (UTC) | temp C | wind direction | speed KPH | gust KPH | rain 1hr cm | rain 24hr cm | rain mn cm | humidity % | barometer mb |
| 20260504050103 | 3 | 36 | 3.2 | 17.7 | 0.03 | 1.78 | 0.08 | 92 | 974.0 |
| 20260504044545 | 3 | 346 | 1.6 | 12.9 | 0.03 | 1.78 | 0.08 | 92 | 975.0 |
| 20260504043047 | 3 | 109 | 1.6 | 16.1 | 0.03 | 1.75 | 0.05 | 93 | 975.7 |
| 20260504041541 | 3 | 181 | 3.2 | 16.1 | 0.03 | 1.75 | 0.05 | 93 | 976.3 |
| 20260504040041 | 3 | 153 | 4.8 | 19.3 | 0.03 | 1.73 | 0.03 | 92 | 977.1 |
| 20260504034544 | 3 | 94 | 4.8 | 14.5 | 0.03 | 1.73 | 0.03 | 93 | 978.1 |
| 20260504033042 | 3 | 56 | 6.4 | 24.1 | 0.00 | 1.70 | 0.00 | 93 | 978.6 |
| 20260504031546 | 4 | 98 | 3.2 | 17.7 | 0.03 | 1.68 | 0.00 | 93 | 979.3 |
| 20260504030047 | 4 | 124 | 3.2 | 14.5 | 0.08 | 1.68 | 0.00 | 93 | 979.8 |
| 20260504024540 | 3 | 145 | 1.6 | 8.0 | 0.10 | 1.68 | 1.68 | 93 | 980.3 |
| 20260504023048 | 4 | 163 | 4.8 | 17.7 | 0.18 | 1.68 | 1.68 | 93 | 981.0 |
| 20260504021547 | 3 | 67 | 1.6 | 14.5 | 0.18 | 1.65 | 1.65 | 93 | 981.7 |
| 20260504020042 | 3 | 110 | 4.8 | 33.8 | 0.18 | 1.60 | 1.60 | 92 | 982.2 |
| 20260504014555 | 3 | 25 | 8.0 | 22.5 | 0.23 | 1.57 | 1.57 | 92 | 983.0 |
| 20260504013042 | 3 | 81 | 4.8 | 17.7 | 0.23 | 1.50 | 1.50 | 92 | 983.8 |
| 20260504011540 | 3 | 100 | 6.4 | 19.3 | 0.23 | 1.45 | 1.45 | 92 | 984.9 |
| 20260504004543 | 3 | 71 | 11.3 | 35.4 | 0.28 | 1.32 | 1.32 | 92 | 987.0 |
| 20260504003043 | 3 | 177 | 11.3 | 27.4 | 0.28 | 1.27 | 1.27 | 92 | 987.4 |
| 20260504001548 | 3 | 60 | 4.8 | 24.1 | 0.28 | 1.19 | 1.19 | 93 | 988.5 |
| 20260504000049 | 3 | 292 | 8.0 | 22.5 | 0.28 | 1.12 | 1.12 | 93 | 988.9 |
| 20260503234549 | 3 | 27 | 6.4 | 25.7 | 0.25 | 1.02 | 1.02 | 93 | 990.0 |
| 20260503233051 | 2 | 165 | 6.4 | 30.6 | 0.28 | 0.97 | 0.97 | 93 | 991.4 |
| 20260503231544 | 2 | 204 | 3.2 | 22.5 | 0.28 | 0.89 | 0.89 | 93 | 992.1 |
| 20260503230043 | 2 | 310 | 9.7 | 24.1 | 0.28 | 0.84 | 0.84 | 93 | 993.1 |
| 20260503224543 | 2 | 357 | 3.2 | 12.9 | 0.30 | 0.76 | 0.76 | 92 | 994.2 |
| 20260503223045 | 2 | 221 | 1.6 | 8.0 | 0.30 | 0.69 | 0.69 | 92 | 995.1 |
| 20260503221555 | 2 | 160 | 4.8 | 17.7 | 0.30 | 0.61 | 0.61 | 92 | 995.7 |
| 20260503220057 | 2 | 0 | 4.8 | 19.3 | 0.28 | 0.53 | 0.53 | 92 | 995.3 |
| 20260503214546 | 2 | 310 | 3.2 | 9.7 | 0.20 | 0.46 | 0.46 | 92 | 995.7 |
| 20260503213043 | 1 | 262 | 4.8 | 14.5 | 0.15 | 0.36 | 0.36 | 92 | 996.3 |
| 20260503211549 | 1 | 170 | 1.6 | 14.5 | 0.08 | 0.28 | 0.28 | 91 | 997.0 |
| 20260503210053 | 1 | 134 | 3.2 | 19.3 | 0.03 | 0.23 | 0.23 | 91 | 997.6 |
| 20260503204557 | 1 | 126 | 3.2 | 22.5 | 0.08 | 0.23 | 0.23 | 91 | 998.5 |
| 20260503203041 | 1 | 189 | 9.7 | 22.5 | 0.08 | 0.20 | 0.20 | 90 | 999.1 |
| 20260503201549 | 2 | 199 | 3.2 | 16.1 | 0.15 | 0.20 | 0.20 | 90 | 999.1 |
| 20260503200047 | 2 | 209 | 1.6 | 19.3 | 0.18 | 0.18 | 0.18 | 90 | 999.7 |
| 20260503194550 | 2 | 79 | 6.4 | 19.3 | 0.15 | 0.18 | 0.15 | 90 | 1000.8 |
| 20260503193043 | 3 | 241 | 3.2 | 6.4 | 0.13 | 0.15 | 0.13 | 89 | 1001.6 |
| 20260503191543 | 3 | 244 | 0.0 | 6.4 | 0.05 | 0.08 | 0.05 | 89 | 1002.6 |
| 20260503190051 | 3 | 0 | 1.6 | 12.9 | 0.00 | 0.00 | 0.00 | 88 | 1003.8 |
| 20260503184551 | 3 | 142 | 1.6 | 16.1 | 0.00 | 0.00 | 0.00 | 88 | 1004.3 |
| 20260503183051 | 3 | 140 | 1.6 | 12.9 | 0.00 | 0.00 | 0.00 | 87 | 1005.0 |
| 20260503181542 | 3 | 150 | 6.4 | 16.1 | 0.00 | 0.00 | 0.00 | 87 | 1005.8 |
| 20260503180049 | 3 | 130 | 3.2 | 16.1 | 0.00 | 0.00 | 0.00 | 87 | 1006.6 |
| 20260503174540 | 4 | 167 | 4.8 | 14.5 | 0.00 | 0.00 | 0.00 | 86 | 1006.6 |
| 20260503173131 | 5 | 154 | 6.4 | 16.1 | 0.00 | 0.00 | 0.00 | 82 | 1007.7 |
| 20260503171547 | 6 | 117 | 3.2 | 12.9 | 0.00 | 0.00 | 0.00 | 80 | 1007.4 |
| 20260503081555 | 0 | 0 | 0.0 | 1.6 | 0.00 | 0.00 | 0.00 | 91 | 1015.1 |
| 20260503071543 | 0 | 254 | 3.2 | 6.4 | 0.00 | 0.05 | 0.00 | 92 | 1015.4 |